| time (UTC) | temp F | wind direction | speed MPH | gust MPH | rain 1hr in | rain 24hr in | rain mn in | humidity % | barometer mb |
| 20260509164532 | 68 | 129 | 0.0 | 2.0 | 0.00 | 0.00 | 0.00 | 54 | 1020.2 |
| 20260509163522 | 69 | 115 | 0.0 | 1.0 | 0.00 | 0.00 | 0.00 | 54 | 1020.3 |
| 20260509162613 | 70 | 130 | 0.0 | 2.0 | 0.00 | 0.00 | 0.00 | 54 | 1020.3 |
| 20260509161603 | 70 | 151 | 0.0 | 2.0 | 0.00 | 0.00 | 0.00 | 54 | 1020.1 |
| 20260509160552 | 71 | 0.0 | 1.0 | 0.00 | 0.00 | 0.00 | 55 | 1020.2 | |
| 20260509155542 | 71 | 143 | 0.0 | 1.0 | 0.00 | 0.00 | 0.00 | 54 | 1020.1 |
| 20260509154552 | 71 | 109 | 0.0 | 1.0 | 0.00 | 0.00 | 0.00 | 55 | 1020.4 |
| 20260509153522 | 70 | 108 | 0.0 | 2.0 | 0.00 | 0.00 | 0.00 | 63 | 1020.4 |
| 20260509152613 | 69 | 308 | 1.0 | 3.0 | 0.00 | 0.00 | 0.00 | 63 | 1020.4 |
| 20260509151623 | 70 | 338 | 2.0 | 4.0 | 0.00 | 0.00 | 0.00 | 62 | 1020.3 |
| 20260509150553 | 69 | 292 | 2.0 | 4.0 | 0.00 | 0.00 | 0.00 | 63 | 1020.3 |
| 20260509145543 | 70 | 318 | 3.0 | 6.0 | 0.00 | 0.00 | 0.00 | 62 | 1020.5 |
| 20260509144534 | 70 | 293 | 2.0 | 4.0 | 0.00 | 0.00 | 0.00 | 60 | 1020.6 |
| 20260509143524 | 70 | 265 | 2.0 | 6.0 | 0.00 | 0.00 | 0.00 | 61 | 1020.7 |
| 20260509142634 | 69 | 325 | 3.0 | 6.0 | 0.00 | 0.00 | 0.00 | 62 | 1020.9 |
| 20260509141605 | 69 | 330 | 1.0 | 4.0 | 0.00 | 0.00 | 0.00 | 61 | 1021.1 |
| 20260509140615 | 69 | 309 | 1.0 | 4.0 | 0.00 | 0.00 | 0.00 | 62 | 1021.3 |
| 20260509135605 | 70 | 301 | 3.0 | 6.0 | 0.00 | 0.00 | 0.00 | 60 | 1021.4 |
| 20260509134534 | 70 | 319 | 4.0 | 7.0 | 0.00 | 0.00 | 0.00 | 61 | 1021.6 |
| 20260509133545 | 72 | 76 | 1.0 | 2.0 | 0.00 | 0.00 | 0.00 | 57 | 1021.7 |
| 20260509132615 | 73 | 112 | 1.0 | 8.0 | 0.00 | 0.00 | 0.00 | 55 | 1021.7 |
| 20260509131625 | 73 | 121 | 0.0 | 1.0 | 0.00 | 0.00 | 0.00 | 54 | 1021.6 |
| 20260509130556 | 73 | 144 | 0.0 | 1.0 | 0.00 | 0.00 | 0.00 | 55 | 1021.8 |
| 20260509125606 | 73 | 88 | 0.0 | 3.0 | 0.00 | 0.00 | 0.00 | 54 | 1021.8 |
| 20260509124535 | 72 | 130 | 1.0 | 3.0 | 0.00 | 0.00 | 0.00 | 56 | 1021.7 |
| 20260509123546 | 74 | 132 | 0.0 | 4.0 | 0.00 | 0.00 | 0.00 | 53 | 1021.9 |
| 20260509122515 | 73 | 0.0 | 1.0 | 0.00 | 0.01 | 0.00 | 51 | 1021.8 | |
| 20260509121606 | 74 | 138 | 0.0 | 2.0 | 0.00 | 0.03 | 0.00 | 51 | 1021.9 |
| 20260509120556 | 72 | 133 | 0.0 | 3.0 | 0.00 | 0.11 | 0.00 | 51 | 1022.0 |
| 20260509115546 | 74 | 45 | 0.0 | 3.0 | 0.00 | 0.14 | 0.00 | 51 | 1021.9 |
| 20260509114536 | 74 | 164 | 0.0 | 3.0 | 0.00 | 0.15 | 0.00 | 52 | 1021.9 |
| 20260509113526 | 73 | 141 | 1.0 | 2.0 | 0.00 | 0.18 | 0.00 | 53 | 1021.9 |
| 20260509112536 | 72 | 162 | 0.0 | 3.0 | 0.00 | 0.26 | 0.00 | 54 | 1022.0 |
| 20260509111607 | 73 | 95 | 1.0 | 2.0 | 0.00 | 0.27 | 0.00 | 53 | 1022.0 |
| 20260509110557 | 74 | 140 | 0.0 | 2.0 | 0.00 | 0.27 | 0.00 | 54 | 1022.0 |
| 20260509105547 | 73 | 353 | 0.0 | 3.0 | 0.00 | 0.30 | 0.00 | 55 | 1022.0 |
| 20260509104537 | 73 | 147 | 1.0 | 2.0 | 0.00 | 0.33 | 0.00 | 55 | 1022.0 |
| 20260509103528 | 72 | 136 | 1.0 | 3.0 | 0.00 | 0.33 | 0.00 | 55 | 1022.0 |
| 20260509102517 | 73 | 145 | 0.0 | 3.0 | 0.00 | 0.33 | 0.00 | 54 | 1022.0 |
| 20260509101608 | 71 | 115 | 0.0 | 3.0 | 0.00 | 0.33 | 0.00 | 56 | 1021.9 |
| 20260509100558 | 71 | 126 | 0.0 | 3.0 | 0.00 | 0.33 | 0.00 | 55 | 1021.9 |
| 20260509095548 | 71 | 152 | 0.0 | 2.0 | 0.00 | 0.33 | 0.00 | 57 | 1021.9 |
| 20260509094538 | 71 | 118 | 0.0 | 2.0 | 0.00 | 0.33 | 0.00 | 56 | 1021.9 |
| 20260509093528 | 71 | 144 | 1.0 | 6.0 | 0.00 | 0.33 | 0.00 | 55 | 1021.8 |
| 20260509092540 | 70 | 146 | 0.0 | 7.0 | 0.00 | 0.33 | 0.00 | 55 | 1021.9 |
| 20260509091609 | 70 | 139 | 0.0 | 3.0 | 0.00 | 0.33 | 0.00 | 57 | 1021.8 |
| 20260509090559 | 69 | 125 | 0.0 | 1.0 | 0.00 | 0.33 | 0.00 | 62 | 1021.8 |
| 20260509085609 | 68 | 139 | 2.0 | 3.0 | 0.00 | 0.33 | 0.00 | 62 | 1021.7 |
| 20260509084559 | 68 | 119 | 1.0 | 3.0 | 0.00 | 0.33 | 0.00 | 66 | 1021.8 |
| 20260509083550 | 68 | 115 | 0.0 | 2.0 | 0.00 | 0.33 | 0.00 | 66 | 1021.8 |
| 20260509082519 | 66 | 145 | 1.0 | 3.0 | 0.00 | 0.33 | 0.00 | 68 | 1021.8 |
| 20260509081613 | 66 | 78 | 0.0 | 2.0 | 0.00 | 0.33 | 0.00 | 70 | 1021.8 |
| 20260509080601 | 65 | 0.0 | 0.0 | 0.00 | 0.33 | 0.00 | 71 | 1021.9 | |
| 20260509075550 | 65 | 0.0 | 2.0 | 0.00 | 0.33 | 0.00 | 72 | 1021.8 | |
| 20260509074540 | 64 | 0.0 | 0.0 | 0.00 | 0.33 | 0.00 | 73 | 1021.9 | |
| 20260509073530 | 64 | 0.0 | 1.0 | 0.00 | 0.33 | 0.00 | 72 | 1021.9 | |
| 20260509072520 | 63 | 126 | 1.0 | 2.0 | 0.00 | 0.33 | 0.00 | 74 | 1022.0 |
| 20260509071611 | 62 | 0.0 | 0.0 | 0.00 | 0.33 | 0.00 | 77 | 1022.0 | |
| 20260509070601 | 61 | 147 | 0.0 | 2.0 | 0.00 | 0.33 | 0.00 | 77 | 1022.0 |
| 20260509065552 | 61 | 139 | 0.0 | 2.0 | 0.00 | 0.33 | 0.00 | 78 | 1022.1 |
| 20260509064541 | 60 | 118 | 0.0 | 2.0 | 0.00 | 0.33 | 0.00 | 79 | 1022.1 |
| 20260509063531 | 60 | 0.0 | 0.0 | 0.00 | 0.33 | 0.00 | 79 | 1022.1 | |
| 20260509062549 | 59 | 0.0 | 0.0 | 0.00 | 0.33 | 0.00 | 80 | 1022.1 | |
| 20260509061612 | 58 | 0.0 | 2.0 | 0.00 | 0.33 | 0.00 | 81 | 1022.2 | |
| 20260509060602 | 58 | 0.0 | 0.0 | 0.00 | 0.33 | 0.00 | 82 | 1022.2 | |
| 20260509055553 | 57 | 0.0 | 0.0 | 0.00 | 0.33 | 0.00 | 82 | 1022.3 | |
| 20260509054542 | 57 | 0.0 | 0.0 | 0.00 | 0.33 | 0.00 | 82 | 1022.3 | |
| 20260509053533 | 57 | 0.0 | 0.0 | 0.00 | 0.33 | 0.00 | 81 | 1022.2 | |
| 20260509052522 | 57 | 0.0 | 0.0 | 0.00 | 0.33 | 0.00 | 81 | 1022.4 | |
| 20260509051613 | 58 | 0.0 | 0.0 | 0.00 | 0.33 | 0.00 | 80 | 1022.2 | |
| 20260509050603 | 57 | 0.0 | 0.0 | 0.00 | 0.33 | 0.00 | 79 | 1022.1 | |
| 20260509045554 | 57 | 329 | 1.0 | 2.0 | 0.00 | 0.33 | 0.00 | 79 | 1021.9 |
| 20260509044544 | 57 | 332 | 1.0 | 2.0 | 0.00 | 0.33 | 0.00 | 79 | 1021.9 |
| 20260509043535 | 56 | 325 | 2.0 | 2.0 | 0.00 | 0.33 | 0.00 | 79 | 1022.0 |
| 20260509042524 | 56 | 318 | 2.0 | 3.0 | 0.00 | 0.33 | 0.00 | 79 | 1021.9 |
| 20260509041614 | 56 | 322 | 1.0 | 2.0 | 0.00 | 0.33 | 0.00 | 80 | 1021.7 |
| 20260509040625 | 56 | 315 | 0.0 | 1.0 | 0.00 | 0.33 | 0.00 | 81 | 1021.6 |
| 20260509035554 | 56 | 0.0 | 0.0 | 0.00 | 0.33 | 0.00 | 81 | 1021.6 | |
| 20260509034544 | 56 | 0.0 | 0.0 | 0.00 | 0.33 | 0.00 | 81 | 1021.4 | |
| 20260509033534 | 55 | 0.0 | 0.0 | 0.00 | 0.33 | 0.00 | 80 | 1021.3 | |
| 20260509032524 | 56 | 0.0 | 0.0 | 0.00 | 0.33 | 0.00 | 79 | 1021.3 | |
| 20260509031615 | 57 | 0.0 | 0.0 | 0.00 | 0.33 | 0.00 | 78 | 1021.1 | |
| 20260509030605 | 57 | 0.0 | 0.0 | 0.00 | 0.33 | 0.00 | 78 | 1021.1 | |
| 20260509025555 | 57 | 270 | 0.0 | 1.0 | 0.00 | 0.33 | 0.00 | 78 | 1021.1 |
| 20260509024545 | 57 | 315 | 1.0 | 2.0 | 0.00 | 0.33 | 0.00 | 78 | 1021.1 |
| 20260509023535 | 57 | 0.0 | 0.0 | 0.00 | 0.33 | 0.00 | 78 | 1021.3 | |
| 20260509022545 | 57 | 0.0 | 0.0 | 0.00 | 0.33 | 0.00 | 78 | 1021.2 | |
| 20260509021515 | 57 | 0.0 | 0.0 | 0.00 | 0.33 | 0.00 | 77 | 1021.1 | |
| 20260509020606 | 57 | 0.0 | 0.0 | 0.00 | 0.33 | 0.00 | 77 | 1021.3 | |
| 20260509015557 | 58 | 0.0 | 0.0 | 0.00 | 0.33 | 0.00 | 77 | 1021.2 | |
| 20260509014548 | 58 | 0.0 | 0.0 | 0.00 | 0.33 | 0.00 | 77 | 1021.2 | |
| 20260509013537 | 58 | 0.0 | 0.0 | 0.00 | 0.33 | 0.00 | 77 | 1021.1 | |
| 20260509012526 | 58 | 0.0 | 0.0 | 0.00 | 0.33 | 0.00 | 78 | 1021.2 | |
| 20260509011516 | 58 | 0.0 | 0.0 | 0.00 | 0.33 | 0.00 | 77 | 1021.1 | |
| 20260509010609 | 58 | 151 | 1.0 | 2.0 | 0.00 | 0.33 | 0.00 | 77 | 1021.0 |
| 20260509005558 | 58 | 152 | 3.0 | 4.0 | 0.00 | 0.33 | 0.00 | 78 | 1020.8 |
| 20260509004547 | 57 | 153 | 3.0 | 4.0 | 0.00 | 0.33 | 0.00 | 79 | 1020.9 |
| 20260509003537 | 58 | 145 | 4.0 | 6.0 | 0.00 | 0.33 | 0.00 | 77 | 1020.7 |
| 20260509002608 | 59 | 161 | 3.0 | 6.0 | 0.00 | 0.33 | 0.00 | 75 | 1020.7 |
| 20260509001517 | 59 | 150 | 3.0 | 4.0 | 0.00 | 0.33 | 0.00 | 74 | 1020.8 |
| 20260509000608 | 59 | 152 | 3.0 | 6.0 | 0.00 | 0.33 | 0.00 | 74 | 1020.8 |
| 20260508235558 | 59 | 148 | 4.0 | 7.0 | 0.00 | 0.33 | 0.00 | 74 | 1020.7 |
| 20260508234549 | 58 | 150 | 5.0 | 7.0 | 0.00 | 0.33 | 0.00 | 76 | 1020.8 |
| 20260508233538 | 58 | 153 | 5.0 | 8.0 | 0.00 | 0.33 | 0.00 | 77 | 1020.8 |
| 20260508232609 | 58 | 153 | 5.0 | 7.0 | 0.00 | 0.33 | 0.00 | 77 | 1020.8 |
| 20260508231518 | 57 | 154 | 6.0 | 10.0 | 0.00 | 0.33 | 0.00 | 80 | 1020.8 |
| 20260508230609 | 56 | 159 | 7.0 | 10.0 | 0.00 | 0.33 | 0.00 | 84 | 1020.8 |
| 20260508225600 | 57 | 154 | 5.0 | 10.0 | 0.00 | 0.33 | 0.00 | 84 | 1020.7 |
| 20260508224550 | 57 | 161 | 1.0 | 6.0 | 0.00 | 0.33 | 0.00 | 81 | 1020.8 |
| 20260508223539 | 58 | 150 | 0.0 | 1.0 | 0.00 | 0.33 | 0.00 | 79 | 1020.8 |
| 20260508222530 | 59 | 0.0 | 0.0 | 0.00 | 0.33 | 0.00 | 77 | 1020.6 | |
| 20260508221519 | 60 | 151 | 0.0 | 3.0 | 0.00 | 0.33 | 0.00 | 73 | 1020.6 |
| 20260508220610 | 60 | 147 | 3.0 | 6.0 | 0.00 | 0.33 | 0.00 | 71 | 1020.6 |
| 20260508215600 | 60 | 153 | 4.0 | 6.0 | 0.00 | 0.33 | 0.33 | 69 | 1020.5 |
| 20260508214550 | 59 | 154 | 4.0 | 7.0 | 0.00 | 0.33 | 0.33 | 73 | 1020.6 |
| 20260508213542 | 59 | 143 | 5.0 | 8.0 | 0.00 | 0.33 | 0.33 | 74 | 1020.6 |
| 20260508212550 | 59 | 152 | 3.0 | 7.0 | 0.00 | 0.33 | 0.33 | 74 | 1020.5 |
| 20260508211520 | 60 | 149 | 6.0 | 8.0 | 0.00 | 0.33 | 0.33 | 71 | 1020.5 |
| 20260508210611 | 60 | 157 | 4.0 | 6.0 | 0.00 | 0.33 | 0.33 | 70 | 1020.7 |
| 20260508205622 | 60 | 151 | 3.0 | 6.0 | 0.00 | 0.33 | 0.33 | 71 | 1020.7 |
| 20260508204552 | 60 | 151 | 5.0 | 7.0 | 0.00 | 0.33 | 0.33 | 70 | 1020.7 |
| 20260508203602 | 60 | 149 | 4.0 | 4.0 | 0.00 | 0.33 | 0.33 | 70 | 1020.7 |
| 20260508202612 | 60 | 154 | 3.0 | 4.0 | 0.00 | 0.33 | 0.33 | 69 | 1020.8 |
| 20260508201522 | 60 | 150 | 3.0 | 4.0 | 0.00 | 0.33 | 0.33 | 70 | 1020.6 |
| 20260508200612 | 60 | 155 | 2.0 | 2.0 | 0.00 | 0.33 | 0.33 | 74 | 1020.5 |
| 20260508195603 | 59 | 153 | 2.0 | 3.0 | 0.00 | 0.33 | 0.33 | 78 | 1020.4 |
| 20260508194553 | 59 | 149 | 2.0 | 4.0 | 0.00 | 0.33 | 0.33 | 78 | 1020.3 |
| 20260508193543 | 59 | 155 | 3.0 | 3.0 | 0.00 | 0.33 | 0.33 | 79 | 1020.3 |
| 20260508192533 | 59 | 164 | 3.0 | 4.0 | 0.00 | 0.33 | 0.33 | 82 | 1020.1 |
| 20260508191522 | 58 | 156 | 4.0 | 6.0 | 0.00 | 0.33 | 0.33 | 84 | 1020.1 |
| 20260508190633 | 59 | 143 | 1.0 | 2.0 | 0.00 | 0.33 | 0.33 | 83 | 1019.9 |
| 20260508185624 | 59 | 147 | 3.0 | 4.0 | 0.00 | 0.33 | 0.33 | 83 | 1019.8 |
| 20260508184615 | 58 | 156 | 2.0 | 4.0 | 0.00 | 0.33 | 0.33 | 86 | 1019.6 |
| 20260508183544 | 59 | 138 | 1.0 | 1.0 | 0.00 | 0.33 | 0.33 | 86 | 1019.5 |
| 20260508182533 | 60 | 0.0 | 0.0 | 0.00 | 0.33 | 0.33 | 84 | 1019.3 | |
| 20260508181523 | 59 | 142 | 1.0 | 2.0 | 0.00 | 0.33 | 0.33 | 83 | 1019.2 |
| 20260508180614 | 59 | 147 | 1.0 | 3.0 | 0.00 | 0.33 | 0.33 | 85 | 1019.0 |
| 20260508175625 | 59 | 146 | 1.0 | 2.0 | 0.00 | 0.33 | 0.33 | 85 | 1018.9 |
| 20260508174615 | 59 | 0.0 | 0.0 | 0.00 | 0.33 | 0.33 | 84 | 1018.9 | |
| 20260508173544 | 59 | 0.0 | 0.0 | 0.00 | 0.33 | 0.33 | 84 | 1019.0 | |
| 20260508172535 | 59 | 0.0 | 0.0 | 0.00 | 0.33 | 0.33 | 85 | 1018.8 | |
| 20260508171524 | 59 | 147 | 2.0 | 3.0 | 0.00 | 0.33 | 0.33 | 85 | 1018.8 |
| 20260508170615 | 60 | 151 | 2.0 | 3.0 | 0.00 | 0.33 | 0.33 | 84 | 1018.7 |
| 20260508165607 | 60 | 159 | 0.0 | 2.0 | 0.00 | 0.33 | 0.33 | 82 | 1018.8 |